TimeCST,TemperatureF,Dew PointF,Humidity,Sea Level PressureIn,VisibilityMPH,Wind Direction,Wind SpeedMPH,Gust SpeedMPH,PrecipitationIn,Events,Conditions,WindDirDegrees,DateUTC
12:55 AM,38.1,24.6,58,30.35,10.0,South,9.2,-,N/A,,Clear,180,2013-01-19 06:55:00
1:55 AM,37.8,25.2,60,30.34,10.0,South,8.1,-,N/A,,Clear,180,2013-01-19 07:55:00
2:55 AM,37.8,25.3,61,30.33,10.0,South,10.4,-,N/A,,Clear,170,2013-01-19 08:55:00
3:55 AM,37.6,25.7,62,30.31,10.0,South,10.4,-,N/A,,Clear,180,2013-01-19 09:55:00
4:55 AM,37.8,26.2,63,30.30,10.0,South,11.5,-,N/A,,Clear,180,2013-01-19 10:55:00
5:55 AM,37.6,26.6,65,30.30,10.0,South,10.4,-,N/A,,Clear,190,2013-01-19 11:55:00
6:55 AM,34.7,26.4,72,30.31,10.0,South,5.8,-,N/A,,Clear,190,2013-01-19 12:55:00
7:55 AM,40.1,28.2,63,30.31,10.0,South,10.4,-,N/A,,Clear,190,2013-01-19 13:55:00
8:55 AM,45.5,29.1,53,30.31,10.0,SSW,15.0,-,N/A,,Clear,200,2013-01-19 14:55:00
9:55 AM,49.3,29.3,46,30.30,10.0,SSW,17.3,-,N/A,,Clear,210,2013-01-19 15:55:00
10:55 AM,52.9,28.9,40,30.27,10.0,SSW,19.6,-,N/A,,Clear,210,2013-01-19 16:55:00
11:55 AM,55.0,27.0,34,30.22,10.0,SW,23.0,28.8,N/A,,Clear,220,2013-01-19 17:55:00
12:55 PM,56.5,26.1,31,30.18,10.0,SSW,17.3,25.3,N/A,,Clear,210,2013-01-19 18:55:00
1:55 PM,56.3,26.6,32,30.17,10.0,SSW,20.7,26.5,N/A,,Clear,210,2013-01-19 19:55:00
2:55 PM,56.5,27.0,32,30.14,10.0,SSW,16.1,24.2,N/A,,Clear,210,2013-01-19 20:55:00
3:55 PM,56.3,24.6,29,30.13,10.0,SSW,19.6,25.3,N/A,,Clear,210,2013-01-19 21:55:00
4:55 PM,53.8,25.7,34,30.12,10.0,South,15.0,-,N/A,,Clear,190,2013-01-19 22:55:00
5:55 PM,51.8,27.9,40,30.12,10.0,South,10.4,-,N/A,,Clear,190,2013-01-19 23:55:00
6:55 PM,50.4,28.9,44,30.11,10.0,SSW,18.4,-,N/A,,Clear,200,2013-01-20 00:55:00
7:55 PM,48.0,30.0,50,30.14,10.0,SSW,9.2,-,N/A,,Clear,210,2013-01-20 01:55:00
8:55 PM,46.4,30.7,54,30.15,10.0,SW,11.5,-,N/A,,Clear,220,2013-01-20 02:55:00
9:55 PM,46.6,29.8,52,30.15,10.0,SW,12.7,-,N/A,,Clear,220,2013-01-20 03:55:00
10:55 PM,46.2,28.9,51,30.15,10.0,SW,13.8,-,N/A,,Clear,230,2013-01-20 04:55:00
11:55 PM,45.1,28.9,53,30.14,10.0,SW,13.8,-,N/A,,Clear,230,2013-01-20 05:55:00